This demonstration page uses our WeatherBlox Daily Observations layout. Learn more.

Left ArrowRight Arrow

Hourly Observations for November 16, 2015

Temp ( °F °C ) Dew Point ( °F °C ) Humidity (%) Winds ( mph kmh ) Pressure ( in mb ) Visibility ( mi km ) Precip ( " mm )
12:53 am 00:53 Clear 31 -0.6 29 -1.7 92 92 Calm 30.31 1027 10 16 0.00 0.00
1:53 am 01:53 Clear 31 -0.6 29 -1.7 92 92 Calm 30.31 1026 10 16 0.00 0.00
2:53 am 02:53 Clear 33 0.6 31 -0.6 92 92 Calm 30.31 1026 10 16 0.00 0.00
3:53 am 03:53 Clear 33 0.6 31 -0.6 92 92 Calm 30.30 1026 10 16 0.00 0.00
4:53 am 04:53 Clear 30 -1.1 28 -2.2 92 92 Calm 30.31 1026 8 13 0.00 0.00
5:53 am 05:53 Clear 29 -1.7 28 -2.2 96 96 Calm 30.31 1027 7 11 0.00 0.00
6:53 am 06:53 Clear 29 -1.7 26 -3.3 89 89 Calm 30.32 1027 10 16 0.00 0.00
7:53 am 07:53 Sunny 30 -1.1 28 -2.2 92 92 Calm 30.32 1027 7 11 0.00 0.00
8:53 am 08:53 Sunny 42 5.6 37 2.8 82 82 E 5 7 30.31 1026 10 16 0.00 0.00
9:53 am 09:53 Sunny 48 8.9 37 2.8 66 66 Calm 30.32 1027 10 16 0.00 0.00
10:53 am 10:53 Sunny 54 12.2 35 1.7 49 49 VRB 3 6 30.31 1026 10 16 0.00 0.00
11:53 am 11:53 Sunny 58 14.4 36 2.2 44 44 ESE 7 11 30.28 1025 10 16 0.00 0.00
12:53 pm 12:53 Sunny 58 14.4 31 -0.6 36 36 SSE 5 7 30.27 1025 10 16 0.00 0.00
1:53 pm 13:53 Sunny 60 15.6 28 -2.2 30 30 undefined N/A 30.24 1024 10 16 0.00 0.00
2:53 pm 14:53 Sunny 59 15 27 -2.8 29 29 VRB 5 7 30.24 1024 10 16 0.00 0.00
3:53 pm 15:53 Mostly Sunny 58 14.4 28 -2.2 32 32 VRB 3 6 30.23 1024 10 16 0.00 0.00
4:53 pm 16:53 Mostly Sunny 57 13.9 31 -0.6 37 37 Calm 30.24 1024 10 16 0.00 0.00
5:53 pm 17:53 Mostly Clear 55 12.8 32 0 42 42 Calm 30.26 1025 10 16 0.00 0.00
6:53 pm 18:53 Cloudy with Light Rain 54 12.2 37 2.8 53 53 SW 3 6 30.27 1025 10 16 0.00 0.03
7:53 pm 19:53 Cloudy with Light Rain 53 11.7 39 3.9 59 59 SW 5 7 30.28 1025 10 16 0.00 0.03
8:53 pm 20:53 Cloudy 51 10.6 39 3.9 64 64 SW 3 6 30.27 1025 10 16 0.00 0.03
9:53 pm 21:53 Cloudy 51 10.6 40 4.4 66 66 Calm 30.25 1024 10 16 0.00 0.00
10:53 pm 22:53 Cloudy 49 9.4 41 5 74 74 Calm 30.24 1024 10 16 0.00 0.00
11:53 pm 23:53 Cloudy 49 9.4 41 5 74 74 E 3 6 30.22 1023 10 16 0.00 0.00

Powered by AerisWeather